| time (UTC) | temp F | wind direction | speed knots | gust knots | rain 1hr in | rain 24hr in | rain mn in | humidity % | barometer mb |
| 20260505130217 | 61 | 229 | 3.5 | 5.2 | 0.00 | 0.02 | 0.02 | 86 | 992.4 |
| 20260505124707 | 60 | 200 | 2.6 | 2.6 | 0.00 | 0.02 | 0.02 | 87 | 992.5 |
| 20260505124203 | 60 | 195 | 0.9 | 1.7 | 0.00 | 0.02 | 0.02 | 89 | 992.4 |
| 20260505123659 | 60 | 198 | 2.6 | 2.6 | 0.00 | 0.02 | 0.02 | 90 | 992.6 |
| 20260505123156 | 59 | 201 | 0.9 | 1.7 | 0.00 | 0.02 | 0.02 | 92 | 992.6 |
| 20260505122653 | 59 | 196 | 2.6 | 2.6 | 0.00 | 0.02 | 0.02 | 93 | 992.5 |
| 20260505122149 | 58 | 208 | 2.6 | 2.6 | 0.00 | 0.02 | 0.02 | 95 | 992.4 |
| 20260505121641 | 58 | 185 | 2.6 | 2.6 | 0.00 | 0.02 | 0.02 | 96 | 992.6 |
| 20260505121137 | 58 | 223 | 2.6 | 2.6 | 0.00 | 0.02 | 0.02 | 97 | 992.4 |
| 20260505120633 | 58 | 189 | 1.7 | 1.7 | 0.00 | 0.02 | 0.02 | 97 | 992.5 |
| 20260505120129 | 58 | 217 | 2.6 | 2.6 | 0.00 | 0.02 | 0.02 | 97 | 992.8 |
| 20260505115624 | 58 | 204 | 3.5 | 4.3 | 0.00 | 0.02 | 0.02 | 98 | 993.0 |
| 20260505115122 | 57 | 194 | 1.7 | 2.6 | 0.00 | 0.02 | 0.02 | 98 | 992.8 |
| 20260505114618 | 57 | 214 | 1.7 | 2.6 | 0.00 | 0.02 | 0.02 | 98 | 992.8 |
| 20260505114115 | 57 | 224 | 3.5 | 4.3 | 0.00 | 0.02 | 0.02 | 98 | 992.9 |
| 20260505113611 | 57 | 187 | 1.7 | 1.7 | 0.00 | 0.02 | 0.02 | 98 | 993.0 |
| 20260505113108 | 57 | 224 | 2.6 | 2.6 | 0.00 | 0.02 | 0.02 | 98 | 992.7 |
| 20260505112604 | 57 | 217 | 1.7 | 2.6 | 0.00 | 0.02 | 0.02 | 98 | 992.9 |
| 20260505112102 | 57 | 221 | 1.7 | 2.6 | 0.00 | 0.02 | 0.02 | 98 | 992.9 |
| 20260505111556 | 57 | 222 | 2.6 | 4.3 | 0.00 | 0.02 | 0.02 | 98 | 992.8 |
| 20260505111052 | 57 | 209 | 1.7 | 2.6 | 0.05 | 0.02 | 0.02 | 98 | 992.5 |
| 20260505110549 | 57 | 207 | 4.3 | 5.2 | 0.05 | 0.02 | 0.02 | 97 | 992.6 |
| 20260505102021 | 59 | 189 | 0.0 | 0.9 | 0.07 | 0.01 | 0.01 | 90 | 993.0 |
| 20260505101520 | 59 | 177 | 0.9 | 1.7 | 0.00 | 0.00 | 0.00 | 89 | 993.0 |
| 20260505101016 | 60 | 240 | 0.9 | 1.7 | 0.00 | 0.00 | 0.00 | 87 | 993.1 |
| 20260505100513 | 60 | 193 | 0.9 | 1.7 | 0.00 | 0.00 | 0.00 | 83 | 993.0 |
| 20260505100010 | 61 | 225 | 5.2 | 8.7 | 0.00 | 0.00 | 0.00 | 79 | 992.9 |
| 20260505095506 | 62 | 203 | 1.7 | 2.6 | 0.00 | 0.00 | 0.00 | 75 | 993.0 |
| 20260505095002 | 62 | 263 | 2.6 | 4.3 | 0.00 | 0.00 | 0.00 | 73 | 992.6 |
| 20260505094459 | 64 | 212 | 1.7 | 1.7 | 0.00 | 0.00 | 0.00 | 69 | 992.6 |
| 20260505093955 | 64 | 219 | 3.5 | 4.3 | 0.00 | 0.00 | 0.00 | 67 | 992.6 |
| 20260505093452 | 64 | 189 | 2.6 | 2.6 | 0.00 | 0.00 | 0.00 | 67 | 992.3 |
| 20260505092949 | 64 | 197 | 1.7 | 1.7 | 0.00 | 0.00 | 0.00 | 66 | 992.5 |
| 20260505092446 | 64 | 228 | 3.5 | 6.1 | 0.00 | 0.00 | 0.00 | 66 | 992.2 |
| 20260505091944 | 64 | 233 | 5.2 | 7.0 | 0.00 | 0.00 | 0.00 | 65 | 991.7 |
| 20260505091441 | 64 | 262 | 5.2 | 6.1 | 0.00 | 0.00 | 0.00 | 66 | 991.9 |
| 20260505090939 | 64 | 210 | 2.6 | 4.3 | 0.00 | 0.00 | 0.00 | 66 | 991.6 |
| 20260505090437 | 64 | 230 | 3.5 | 4.3 | 0.00 | 0.00 | 0.00 | 66 | 991.6 |
| 20260505085934 | 64 | 183 | 1.7 | 2.6 | 0.00 | 0.00 | 0.00 | 66 | 991.6 |
| 20260505085432 | 64 | 223 | 4.3 | 6.1 | 0.00 | 0.00 | 0.00 | 66 | 991.3 |
| 20260505084930 | 64 | 176 | 4.3 | 6.1 | 0.00 | 0.00 | 0.00 | 66 | 991.4 |
| 20260505084428 | 64 | 204 | 1.7 | 1.7 | 0.00 | 0.00 | 0.00 | 66 | 991.2 |
| 20260505083926 | 64 | 243 | 2.6 | 2.6 | 0.00 | 0.00 | 0.00 | 66 | 991.3 |
| 20260505083423 | 64 | 221 | 5.2 | 7.0 | 0.00 | 0.00 | 0.00 | 65 | 991.1 |
| 20260505082919 | 64 | 202 | 3.5 | 6.1 | 0.00 | 0.00 | 0.00 | 65 | 991.0 |
| 20260505082415 | 64 | 215 | 4.3 | 6.1 | 0.00 | 0.00 | 0.00 | 66 | 990.9 |
| 20260505081912 | 64 | 199 | 2.6 | 4.3 | 0.00 | 0.00 | 0.00 | 66 | 990.6 |
| 20260505081409 | 64 | 237 | 6.1 | 7.0 | 0.00 | 0.00 | 0.00 | 65 | 990.5 |
| 20260505080905 | 64 | 218 | 4.3 | 5.2 | 0.00 | 0.00 | 0.00 | 65 | 990.5 |
| 20260505080401 | 64 | 239 | 7.0 | 7.8 | 0.00 | 0.00 | 0.00 | 65 | 990.4 |
| 20260505075857 | 64 | 182 | 4.3 | 5.2 | 0.00 | 0.00 | 0.00 | 66 | 990.5 |
| 20260505075354 | 64 | 207 | 3.5 | 4.3 | 0.00 | 0.00 | 0.00 | 66 | 990.6 |
| 20260505074851 | 64 | 218 | 2.6 | 4.3 | 0.00 | 0.00 | 0.00 | 66 | 990.5 |
| 20260505074348 | 64 | 232 | 4.3 | 5.2 | 0.00 | 0.00 | 0.00 | 65 | 990.7 |
| 20260505073846 | 64 | 233 | 4.3 | 6.1 | 0.00 | 0.00 | 0.00 | 66 | 990.4 |
| 20260505073344 | 64 | 230 | 2.6 | 2.6 | 0.00 | 0.00 | 0.00 | 65 | 990.4 |
| 20260505072840 | 64 | 235 | 3.5 | 4.3 | 0.00 | 0.00 | 0.00 | 65 | 990.5 |
| 20260505072336 | 64 | 231 | 6.1 | 7.8 | 0.00 | 0.00 | 0.00 | 65 | 990.4 |
| 20260505071833 | 64 | 219 | 5.2 | 7.0 | 0.00 | 0.00 | 0.00 | 65 | 990.3 |
| 20260505071329 | 64 | 213 | 3.5 | 5.2 | 0.00 | 0.00 | 0.00 | 65 | 990.2 |
| 20260505070828 | 65 | 212 | 4.3 | 4.3 | 0.00 | 0.00 | 0.00 | 65 | 990.3 |
| 20260505070323 | 64 | 204 | 3.5 | 4.3 | 0.00 | 0.00 | 0.00 | 65 | 990.4 |
| 20260505065819 | 64 | 191 | 5.2 | 6.1 | 0.00 | 0.00 | 0.00 | 64 | 990.5 |
| 20260505065316 | 65 | 197 | 3.5 | 5.2 | 0.00 | 0.00 | 0.00 | 64 | 990.4 |
| 20260505064813 | 65 | 192 | 3.5 | 5.2 | 0.00 | 0.00 | 0.00 | 64 | 990.6 |
| 20260505064310 | 64 | 210 | 2.6 | 2.6 | 0.00 | 0.00 | 0.00 | 64 | 990.5 |
| 20260505063808 | 64 | 192 | 7.0 | 8.7 | 0.00 | 0.00 | 0.00 | 64 | 990.6 |
| 20260505063304 | 65 | 211 | 4.3 | 5.2 | 0.00 | 0.00 | 0.00 | 64 | 990.5 |
| 20260505062800 | 65 | 214 | 2.6 | 4.3 | 0.00 | 0.00 | 0.00 | 64 | 990.5 |
| 20260505062258 | 65 | 246 | 5.2 | 7.0 | 0.00 | 0.00 | 0.00 | 64 | 990.6 |
| 20260505061755 | 65 | 248 | 8.7 | 11.3 | 0.00 | 0.00 | 0.00 | 63 | 990.4 |
| 20260505061253 | 65 | 252 | 4.3 | 6.1 | 0.00 | 0.00 | 0.00 | 63 | 990.3 |
| 20260505060750 | 65 | 224 | 3.5 | 5.2 | 0.00 | 0.00 | 0.00 | 64 | 990.2 |
| 20260505060247 | 65 | 245 | 4.3 | 6.1 | 0.00 | 0.00 | 0.00 | 64 | 990.3 |
| 20260505055742 | 65 | 197 | 3.5 | 5.2 | 0.00 | 0.00 | 0.00 | 64 | 990.3 |
| 20260505055238 | 65 | 256 | 3.5 | 5.2 | 0.00 | 0.00 | 0.00 | 64 | 990.0 |
| 20260505054736 | 65 | 180 | 2.6 | 2.6 | 0.00 | 0.00 | 0.00 | 64 | 989.9 |
| 20260505054234 | 65 | 206 | 3.5 | 4.3 | 0.00 | 0.00 | 0.00 | 63 | 990.0 |
| 20260505053732 | 65 | 231 | 4.3 | 6.1 | 0.00 | 0.00 | 0.00 | 63 | 990.0 |
| 20260505053228 | 65 | 221 | 5.2 | 7.0 | 0.00 | 0.00 | 0.00 | 63 | 990.0 |
| 20260505052725 | 65 | 220 | 5.2 | 7.0 | 0.00 | 0.00 | 0.00 | 64 | 990.1 |
| 20260505052222 | 65 | 215 | 3.5 | 5.2 | 0.00 | 0.00 | 0.00 | 63 | 990.1 |
| 20260505051719 | 65 | 246 | 4.3 | 7.0 | 0.00 | 0.00 | 0.00 | 64 | 990.0 |
| 20260505051217 | 65 | 220 | 3.5 | 4.3 | 0.00 | 0.00 | 0.00 | 64 | 990.3 |
| 20260505050715 | 66 | 235 | 4.3 | 6.1 | 0.00 | 0.00 | 0.00 | 64 | 990.2 |
| 20260505050213 | 66 | 219 | 4.3 | 7.0 | 0.00 | 0.00 | 0.00 | 63 | 990.3 |
| 20260505041642 | 66 | 198 | 3.5 | 4.3 | 0.00 | 0.00 | 0.00 | 63 | 990.6 |
| 20260505041140 | 66 | 178 | 4.3 | 5.2 | 0.00 | 0.00 | 0.00 | 63 | 990.4 |
| 20260505040637 | 67 | 204 | 2.6 | 4.3 | 0.00 | 0.00 | 0.00 | 63 | 990.6 |
| 20260505040134 | 67 | 231 | 7.0 | 9.6 | 0.00 | 0.00 | 0.00 | 62 | 990.5 |
| 20260505035630 | 67 | 221 | 4.3 | 6.1 | 0.00 | 0.00 | 0.00 | 63 | 990.6 |
| 20260505035126 | 67 | 232 | 2.6 | 4.3 | 0.00 | 0.00 | 0.00 | 64 | 990.6 |
| 20260505034623 | 66 | 205 | 5.2 | 6.1 | 0.00 | 0.00 | 0.00 | 64 | 990.5 |
| 20260505034120 | 67 | 236 | 5.2 | 6.1 | 0.00 | 0.00 | 0.00 | 64 | 990.6 |
| 20260505033617 | 66 | 229 | 5.2 | 7.0 | 0.00 | 0.00 | 0.00 | 64 | 990.7 |
| 20260505033116 | 67 | 163 | 0.9 | 1.7 | 0.00 | 0.00 | 0.00 | 64 | 990.6 |
| 20260505032613 | 66 | 264 | 2.6 | 4.3 | 0.00 | 0.00 | 0.00 | 64 | 990.6 |
| 20260505032109 | 66 | 223 | 2.6 | 4.3 | 0.00 | 0.00 | 0.00 | 65 | 990.5 |
| 20260505031607 | 67 | 204 | 4.3 | 6.1 | 0.00 | 0.00 | 0.00 | 64 | 990.4 |
| 20260505031103 | 66 | 212 | 2.6 | 4.3 | 0.00 | 0.00 | 0.00 | 64 | 990.4 |
| 20260505030600 | 67 | 188 | 1.7 | 1.7 | 0.00 | 0.00 | 0.00 | 64 | 990.3 |
| 20260505030055 | 67 | 206 | 2.6 | 4.3 | 0.00 | 0.00 | 0.00 | 64 | 990.3 |
| 20260505025551 | 67 | 177 | 1.7 | 1.7 | 0.00 | 0.00 | 0.00 | 64 | 990.3 |
| 20260505025051 | 67 | 188 | 2.6 | 2.6 | 0.00 | 0.00 | 0.00 | 64 | 990.2 |
| 20260505024547 | 67 | 199 | 2.6 | 2.6 | 0.00 | 0.00 | 0.00 | 64 | 990.3 |
| 20260505024044 | 67 | 196 | 4.3 | 5.2 | 0.00 | 0.00 | 0.00 | 64 | 990.2 |
| 20260505023541 | 67 | 221 | 0.9 | 0.9 | 0.00 | 0.00 | 0.00 | 64 | 990.2 |
| 20260505023039 | 68 | 233 | 2.6 | 2.6 | 0.00 | 0.00 | 0.00 | 63 | 990.0 |
| 20260505022536 | 68 | 201 | 2.6 | 2.6 | 0.00 | 0.00 | 0.00 | 62 | 990.1 |
| 20260505022034 | 68 | 216 | 1.7 | 1.7 | 0.00 | 0.00 | 0.00 | 62 | 989.9 |
| 20260505021530 | 68 | 187 | 2.6 | 2.6 | 0.00 | 0.00 | 0.00 | 62 | 989.9 |
| 20260505021026 | 68 | 226 | 3.5 | 4.3 | 0.00 | 0.00 | 0.00 | 61 | 989.6 |
| 20260505020520 | 68 | 194 | 2.6 | 2.6 | 0.00 | 0.00 | 0.00 | 61 | 989.6 |
| 20260505020018 | 68 | 191 | 1.7 | 1.7 | 0.00 | 0.00 | 0.00 | 62 | 989.7 |
| 20260505015515 | 68 | 203 | 0.9 | 1.7 | 0.00 | 0.00 | 0.00 | 61 | 989.4 |
| 20260505015012 | 69 | 184 | 0.9 | 1.7 | 0.00 | 0.00 | 0.00 | 60 | 989.4 |
| 20260505014509 | 69 | 192 | 1.7 | 2.6 | 0.00 | 0.00 | 0.00 | 61 | 989.2 |
| 20260505014006 | 69 | 187 | 3.5 | 5.2 | 0.00 | 0.00 | 0.00 | 60 | 989.3 |
| 20260505013503 | 69 | 187 | 1.7 | 1.7 | 0.00 | 0.00 | 0.00 | 60 | 989.3 |
| 20260505013000 | 69 | 201 | 1.7 | 1.7 | 0.00 | 0.00 | 0.00 | 60 | 989.3 |
| 20260505012458 | 69 | 175 | 1.7 | 1.7 | 0.00 | 0.00 | 0.00 | 60 | 989.4 |
| 20260505011955 | 69 | 186 | 2.6 | 4.3 | 0.00 | 0.00 | 0.00 | 59 | 988.9 |
| 20260505011451 | 70 | 230 | 2.6 | 4.3 | 0.00 | 0.00 | 0.00 | 59 | 989.3 |
| 20260505010948 | 70 | 214 | 1.7 | 1.7 | 0.00 | 0.00 | 0.00 | 59 | 989.1 |
| 20260505010443 | 70 | 233 | 2.6 | 4.3 | 0.00 | 0.00 | 0.00 | 58 | 989.2 |
| 20260505005940 | 70 | 212 | 2.6 | 2.6 | 0.00 | 0.00 | 0.00 | 58 | 989.2 |
| 20260505005436 | 71 | 225 | 4.3 | 6.1 | 0.00 | 0.00 | 0.00 | 58 | 989.2 |
| 20260505004934 | 71 | 250 | 2.6 | 4.3 | 0.00 | 0.00 | 0.00 | 58 | 989.2 |
| 20260505004430 | 71 | 218 | 4.3 | 5.2 | 0.00 | 0.00 | 0.00 | 57 | 989.0 |
| 20260505003928 | 71 | 215 | 2.6 | 2.6 | 0.00 | 0.00 | 0.00 | 58 | 989.1 |
| 20260505003425 | 71 | 219 | 5.2 | 6.1 | 0.00 | 0.00 | 0.00 | 57 | 989.3 |
| 20260505002921 | 71 | 201 | 1.7 | 1.7 | 0.00 | 0.00 | 0.00 | 59 | 989.3 |
| 20260505002417 | 71 | 212 | 2.6 | 4.3 | 0.00 | 0.00 | 0.00 | 58 | 989.3 |
| 20260505001916 | 72 | 214 | 1.7 | 2.6 | 0.00 | 0.00 | 0.00 | 58 | 989.3 |
| 20260505001413 | 72 | 214 | 2.6 | 2.6 | 0.00 | 0.00 | 0.00 | 57 | 989.6 |
| 20260505000910 | 72 | 226 | 1.7 | 1.7 | 0.00 | 0.00 | 0.00 | 57 | 989.5 |
| 20260505000408 | 72 | 207 | 0.9 | 1.7 | 0.00 | 0.00 | 0.00 | 56 | 989.4 |
| 20260504235904 | 73 | 214 | 1.7 | 2.6 | 0.00 | 0.00 | 0.00 | 56 | 989.3 |
| 20260504235402 | 73 | 248 | 4.3 | 5.2 | 0.00 | 0.00 | 0.00 | 54 | 989.5 |
| 20260504234857 | 73 | 196 | 0.9 | 1.7 | 0.00 | 0.00 | 0.00 | 54 | 989.4 |
| 20260504234355 | 74 | 221 | 2.6 | 2.6 | 0.00 | 0.00 | 0.00 | 53 | 989.7 |
| 20260504233852 | 74 | 233 | 8.7 | 9.6 | 0.00 | 0.00 | 0.00 | 52 | 989.8 |
| 20260504233348 | 73 | 192 | 2.6 | 2.6 | 0.00 | 0.00 | 0.00 | 53 | 989.9 |
| 20260504232844 | 74 | 232 | 3.5 | 4.3 | 0.00 | 0.00 | 0.00 | 53 | 989.9 |
| 20260504232342 | 74 | 228 | 6.1 | 7.0 | 0.00 | 0.00 | 0.00 | 52 | 989.8 |
| 20260504231838 | 74 | 220 | 3.5 | 4.3 | 0.00 | 0.00 | 0.00 | 52 | 989.9 |
| 20260504231335 | 75 | 244 | 6.1 | 7.0 | 0.00 | 0.00 | 0.00 | 51 | 989.9 |
| 20260504230831 | 74 | 252 | 5.2 | 7.0 | 0.00 | 0.00 | 0.00 | 50 | 990.0 |
| 20260504230329 | 75 | 241 | 4.3 | 5.2 | 0.00 | 0.00 | 0.00 | 50 | 990.1 |
| 20260504225828 | 75 | 223 | 2.6 | 4.3 | 0.00 | 0.00 | 0.00 | 49 | 990.1 |
| 20260504225324 | 75 | 233 | 3.5 | 7.0 | 0.00 | 0.00 | 0.00 | 48 | 990.2 |
| 20260504224821 | 75 | 224 | 6.1 | 7.0 | 0.00 | 0.00 | 0.00 | 48 | 990.1 |
| 20260504224318 | 75 | 228 | 7.0 | 8.7 | 0.00 | 0.00 | 0.00 | 47 | 990.3 |
| 20260504223815 | 75 | 229 | 5.2 | 7.0 | 0.00 | 0.00 | 0.00 | 49 | 990.3 |
| 20260504223310 | 75 | 181 | 2.6 | 2.6 | 0.00 | 0.00 | 0.00 | 49 | 990.1 |
| 20260504222807 | 75 | 225 | 7.0 | 11.3 | 0.00 | 0.00 | 0.00 | 48 | 990.1 |
| 20260504222305 | 76 | 231 | 7.0 | 7.8 | 0.00 | 0.00 | 0.00 | 48 | 990.3 |
| 20260504221802 | 76 | 247 | 8.7 | 13.0 | 0.00 | 0.00 | 0.00 | 47 | 990.3 |
| 20260504221259 | 76 | 273 | 7.0 | 8.7 | 0.00 | 0.00 | 0.00 | 46 | 990.2 |
| 20260504220755 | 76 | 224 | 4.3 | 7.0 | 0.00 | 0.00 | 0.00 | 48 | 990.4 |
| 20260504220252 | 77 | 228 | 6.1 | 7.0 | 0.00 | 0.00 | 0.00 | 47 | 990.1 |
| 20260504215750 | 76 | 214 | 4.3 | 7.0 | 0.00 | 0.00 | 0.00 | 46 | 990.4 |
| 20260504215246 | 76 | 255 | 4.3 | 5.2 | 0.00 | 0.00 | 0.00 | 47 | 990.3 |
| 20260504214742 | 77 | 220 | 7.0 | 7.8 | 0.00 | 0.00 | 0.00 | 46 | 990.5 |
| 20260504214238 | 77 | 234 | 6.1 | 7.8 | 0.00 | 0.00 | 0.00 | 47 | 990.5 |
| 20260504213735 | 77 | 233 | 6.1 | 8.7 | 0.00 | 0.00 | 0.00 | 47 | 990.2 |
| 20260504213232 | 77 | 224 | 3.5 | 5.2 | 0.00 | 0.00 | 0.00 | 48 | 990.0 |
| 20260504212729 | 77 | 250 | 5.2 | 7.0 | 0.00 | 0.00 | 0.00 | 51 | 990.5 |
| 20260504212225 | 77 | 208 | 6.1 | 7.8 | 0.00 | 0.00 | 0.00 | 49 | 990.4 |
| 20260504211723 | 76 | 211 | 2.6 | 4.3 | 0.00 | 0.00 | 0.00 | 52 | 990.7 |
| 20260504211219 | 77 | 209 | 3.5 | 5.2 | 0.00 | 0.00 | 0.00 | 50 | 990.5 |
| 20260504210717 | 77 | 227 | 3.5 | 7.0 | 0.00 | 0.00 | 0.00 | 51 | 990.6 |
| 20260504210214 | 78 | 221 | 3.5 | 5.2 | 0.00 | 0.00 | 0.00 | 51 | 990.5 |
| 20260504205711 | 78 | 242 | 2.6 | 2.6 | 0.00 | 0.00 | 0.00 | 51 | 990.6 |
| 20260504205208 | 78 | 200 | 6.1 | 8.7 | 0.00 | 0.00 | 0.00 | 51 | 990.6 |
| 20260504204706 | 78 | 222 | 4.3 | 7.0 | 0.00 | 0.00 | 0.00 | 52 | 990.7 |
| 20260504204204 | 78 | 273 | 7.8 | 9.6 | 0.00 | 0.00 | 0.00 | 51 | 990.6 |
| 20260504203703 | 77 | 241 | 2.6 | 2.6 | 0.00 | 0.00 | 0.00 | 51 | 990.7 |
| 20260504203200 | 78 | 181 | 0.9 | 0.9 | 0.00 | 0.00 | 0.00 | 53 | 991.0 |
| 20260504202654 | 77 | 216 | 0.9 | 0.9 | 0.00 | 0.00 | 0.00 | 51 | 990.9 |
| 20260504202152 | 76 | 227 | 2.6 | 4.3 | 0.00 | 0.00 | 0.00 | 52 | 991.1 |
| 20260504201648 | 75 | 237 | 2.6 | 2.6 | 0.00 | 0.00 | 0.00 | 52 | 991.0 |
| 20260504201146 | 74 | 211 | 2.6 | 2.6 | 0.00 | 0.00 | 0.00 | 54 | 991.2 |
| 20260504200643 | 74 | 212 | 2.6 | 4.3 | 0.00 | 0.00 | 0.00 | 53 | 991.3 |
| 20260504200140 | 74 | 215 | 2.6 | 4.3 | 0.00 | 0.00 | 0.00 | 52 | 991.4 |
| 20260504195635 | 75 | 219 | 4.3 | 5.2 | 0.00 | 0.00 | 0.00 | 52 | 991.4 |
| 20260504195132 | 75 | 248 | 2.6 | 2.6 | 0.00 | 0.00 | 0.00 | 54 | 991.6 |
| 20260504194629 | 75 | 299 | 4.3 | 5.2 | 0.00 | 0.00 | 0.00 | 55 | 991.6 |
| 20260504194125 | 74 | 234 | 6.1 | 8.7 | 0.00 | 0.00 | 0.00 | 55 | 991.7 |
| 20260504193621 | 74 | 295 | 6.1 | 8.7 | 0.00 | 0.00 | 0.00 | 55 | 991.7 |
| 20260504193120 | 75 | 273 | 3.5 | 5.2 | 0.00 | 0.00 | 0.00 | 54 | 992.0 |
| 20260504192617 | 75 | 230 | 2.6 | 2.6 | 0.00 | 0.00 | 0.00 | 57 | 991.9 |
| 20260504192115 | 76 | 199 | 3.5 | 5.2 | 0.00 | 0.00 | 0.00 | 54 | 991.9 |
| 20260504191614 | 75 | 261 | 3.5 | 5.2 | 0.00 | 0.00 | 0.00 | 57 | 991.9 |
| 20260504191109 | 75 | 234 | 2.6 | 2.6 | 0.00 | 0.00 | 0.00 | 58 | 991.9 |
| 20260504190606 | 74 | 285 | 2.6 | 4.3 | 0.00 | 0.00 | 0.00 | 57 | 992.0 |
| 20260504185559 | 73 | 245 | 2.6 | 5.2 | 0.00 | 0.00 | 0.00 | 60 | 992.1 |
| 20260504185055 | 73 | 200 | 6.1 | 8.7 | 0.00 | 0.00 | 0.00 | 60 | 992.4 |
| 20260504184551 | 72 | 227 | 4.3 | 7.0 | 0.00 | 0.00 | 0.00 | 61 | 992.6 |
| 20260504184046 | 71 | 214 | 4.3 | 7.0 | 0.00 | 0.00 | 0.00 | 62 | 992.5 |
| 20260504183544 | 72 | 263 | 4.3 | 6.1 | 0.00 | 0.00 | 0.00 | 62 | 992.5 |
| 20260504183042 | 72 | 230 | 4.3 | 4.3 | 0.00 | 0.00 | 0.00 | 62 | 992.3 |
| 20260504182539 | 71 | 212 | 3.5 | 5.2 | 0.00 | 0.00 | 0.00 | 63 | 992.4 |
| 20260504182036 | 71 | 242 | 7.0 | 7.8 | 0.00 | 0.00 | 0.00 | 61 | 992.3 |
| 20260504181533 | 71 | 186 | 4.3 | 6.1 | 0.00 | 0.00 | 0.00 | 61 | 992.2 |
| 20260504181031 | 72 | 209 | 7.0 | 12.2 | 0.00 | 0.00 | 0.00 | 60 | 992.3 |
| 20260504180530 | 71 | 206 | 1.7 | 2.6 | 0.00 | 0.00 | 0.00 | 63 | 992.0 |
| 20260504180028 | 70 | 232 | 4.3 | 6.1 | 0.00 | 0.00 | 0.00 | 63 | 992.0 |
| 20260504175525 | 70 | 196 | 4.3 | 6.1 | 0.00 | 0.00 | 0.00 | 63 | 991.9 |
| 20260504175022 | 70 | 237 | 5.2 | 6.1 | 0.00 | 0.00 | 0.00 | 64 | 992.2 |
| 20260504174520 | 69 | 231 | 6.1 | 7.8 | 0.00 | 0.00 | 0.00 | 64 | 992.3 |
| 20260504174017 | 69 | 206 | 2.6 | 2.6 | 0.00 | 0.00 | 0.00 | 65 | 992.3 |
| 20260504173513 | 70 | 206 | 7.0 | 7.8 | 0.00 | 0.00 | 0.00 | 63 | 992.3 |
| 20260504173011 | 68 | 214 | 4.3 | 5.2 | 0.00 | 0.00 | 0.00 | 66 | 992.3 |
| 20260504172507 | 68 | 213 | 3.5 | 6.1 | 0.00 | 0.00 | 0.00 | 67 | 992.2 |
| 20260504172003 | 67 | 190 | 4.3 | 5.2 | 0.00 | 0.00 | 0.00 | 67 | 992.2 |
| 20260504171500 | 67 | 248 | 4.3 | 6.1 | 0.00 | 0.00 | 0.00 | 68 | 992.4 |
| 20260504170957 | 68 | 228 | 7.0 | 8.7 | 0.00 | 0.00 | 0.00 | 66 | 992.3 |
| 20260504170453 | 67 | 262 | 2.6 | 4.3 | 0.00 | 0.00 | 0.00 | 68 | 992.3 |
| 20260504160413 | 67 | 231 | 4.3 | 7.0 | 0.00 | 0.00 | 0.00 | 65 | 993.1 |
| 20260504150837 | 65 | 205 | 3.5 | 5.2 | 0.00 | 0.00 | 0.00 | 68 | 992.9 |
| 20260504150334 | 63 | 212 | 2.6 | 2.6 | 0.00 | 0.00 | 0.00 | 70 | 992.7 |
| 20260504141304 | 62 | 218 | 8.7 | 11.3 | 0.00 | 0.00 | 0.00 | 68 | 992.6 |
| 20260504140801 | 61 | 211 | 3.5 | 5.2 | 0.00 | 0.00 | 0.00 | 71 | 992.5 |
| 20260504140256 | 61 | 225 | 3.5 | 5.2 | 0.00 | 0.00 | 0.00 | 71 | 992.8 |